| time (UTC) | temp F | wind direction | speed knots | gust knots | rain 1hr in | rain 24hr in | rain mn in | humidity % | barometer mb |
| 20260504231740 | 60 | 284 | 0.0 | 0.0 | 0.00 | 0.00 | 0.00 | 48 | 1003.5 |
| 20260504231237 | 61 | 284 | 0.0 | 0.0 | 0.00 | 0.00 | 0.00 | 47 | 1003.6 |
| 20260504230732 | 62 | 284 | 0.0 | 0.0 | 0.00 | 0.00 | 0.00 | 44 | 1003.2 |
| 20260504230231 | 63 | 284 | 0.0 | 0.0 | 0.00 | 0.00 | 0.00 | 41 | 1003.1 |
| 20260504225730 | 64 | 284 | 0.0 | 0.9 | 0.00 | 0.00 | 0.00 | 41 | 1003.2 |
| 20260504225226 | 64 | 284 | 0.0 | 0.0 | 0.00 | 0.00 | 0.00 | 40 | 1003.2 |
| 20260504224723 | 65 | 284 | 0.0 | 0.0 | 0.00 | 0.00 | 0.00 | 40 | 1003.0 |
| 20260504224220 | 66 | 284 | 0.9 | 0.9 | 0.00 | 0.00 | 0.00 | 33 | 1002.9 |
| 20260504223716 | 66 | 284 | 0.0 | 1.7 | 0.00 | 0.00 | 0.00 | 35 | 1003.0 |
| 20260504223212 | 66 | 284 | 0.9 | 2.6 | 0.00 | 0.00 | 0.00 | 35 | 1003.2 |
| 20260504222709 | 66 | 284 | 0.0 | 0.9 | 0.00 | 0.00 | 0.00 | 37 | 1003.1 |
| 20260504222206 | 66 | 284 | 0.0 | 0.0 | 0.00 | 0.00 | 0.00 | 37 | 1003.1 |
| 20260504221703 | 66 | 284 | 0.0 | 0.0 | 0.00 | 0.00 | 0.00 | 35 | 1002.9 |
| 20260504221200 | 66 | 284 | 0.0 | 0.0 | 0.00 | 0.00 | 0.00 | 37 | 1003.0 |
| 20260504220656 | 67 | 284 | 0.0 | 0.0 | 0.00 | 0.00 | 0.00 | 36 | 1003.0 |
| 20260504220154 | 67 | 284 | 0.0 | 0.0 | 0.00 | 0.00 | 0.00 | 35 | 1003.1 |
| 20260504215651 | 67 | 284 | 0.0 | 1.7 | 0.00 | 0.00 | 0.00 | 33 | 1003.0 |
| 20260504215148 | 67 | 284 | 0.0 | 0.9 | 0.00 | 0.00 | 0.00 | 36 | 1003.0 |
| 20260504214643 | 67 | 284 | 0.0 | 0.0 | 0.00 | 0.00 | 0.00 | 36 | 1002.9 |
| 20260504214140 | 67 | 284 | 0.0 | 0.9 | 0.00 | 0.00 | 0.00 | 35 | 1002.9 |
| 20260504213637 | 67 | 284 | 0.0 | 0.0 | 0.00 | 0.00 | 0.00 | 36 | 1002.9 |
| 20260504213134 | 66 | 284 | 0.0 | 0.0 | 0.00 | 0.00 | 0.00 | 36 | 1002.7 |
| 20260504212630 | 67 | 284 | 0.0 | 0.9 | 0.00 | 0.00 | 0.00 | 33 | 1003.0 |
| 20260504212127 | 68 | 284 | 0.9 | 1.7 | 0.00 | 0.00 | 0.00 | 34 | 1003.2 |
| 20260504211625 | 69 | 284 | 0.0 | 0.9 | 0.00 | 0.00 | 0.00 | 32 | 1002.9 |
| 20260504211121 | 69 | 284 | 0.0 | 2.6 | 0.00 | 0.00 | 0.00 | 33 | 1003.0 |
| 20260504210619 | 69 | 284 | 1.7 | 5.2 | 0.00 | 0.00 | 0.00 | 33 | 1002.9 |
| 20260504210114 | 70 | 284 | 1.7 | 3.5 | 0.00 | 0.00 | 0.00 | 30 | 1002.9 |
| 20260504205612 | 69 | 284 | 0.9 | 0.9 | 0.00 | 0.00 | 0.00 | 31 | 1002.7 |
| 20260504205110 | 70 | 284 | 1.7 | 5.2 | 0.00 | 0.00 | 0.00 | 31 | 1002.8 |
| 20260504204608 | 68 | 284 | 0.9 | 3.5 | 0.00 | 0.00 | 0.00 | 31 | 1002.9 |
| 20260504204107 | 68 | 284 | 1.7 | 1.7 | 0.00 | 0.00 | 0.00 | 31 | 1002.8 |
| 20260504203605 | 67 | 284 | 0.0 | 1.7 | 0.00 | 0.00 | 0.00 | 34 | 1002.7 |
| 20260504203102 | 66 | 284 | 0.9 | 1.7 | 0.00 | 0.00 | 0.00 | 34 | 1003.0 |
| 20260504202557 | 67 | 284 | 1.7 | 2.6 | 0.00 | 0.00 | 0.00 | 33 | 1002.9 |
| 20260504202054 | 68 | 284 | 1.7 | 8.7 | 0.00 | 0.00 | 0.00 | 33 | 1002.9 |
| 20260504201551 | 69 | 284 | 0.0 | 1.7 | 0.00 | 0.00 | 0.00 | 32 | 1003.1 |
| 20260504201049 | 67 | 284 | 1.7 | 3.5 | 0.00 | 0.00 | 0.00 | 32 | 1003.0 |
| 20260504200545 | 69 | 284 | 0.0 | 0.0 | 0.00 | 0.00 | 0.00 | 33 | 1003.0 |
| 20260504200042 | 67 | 284 | 1.7 | 1.7 | 0.00 | 0.00 | 0.00 | 34 | 1003.2 |
| 20260504195538 | 66 | 284 | 0.0 | 3.5 | 0.00 | 0.00 | 0.00 | 35 | 1003.2 |
| 20260504195035 | 65 | 284 | 0.9 | 1.7 | 0.00 | 0.00 | 0.00 | 36 | 1003.2 |
| 20260504194531 | 67 | 284 | 2.6 | 3.5 | 0.00 | 0.00 | 0.00 | 34 | 1003.3 |
| 20260504194027 | 66 | 284 | 1.7 | 5.2 | 0.00 | 0.00 | 0.00 | 36 | 1003.2 |
| 20260504193523 | 66 | 284 | 0.0 | 3.5 | 0.00 | 0.00 | 0.00 | 36 | 1003.3 |
| 20260504193022 | 66 | 284 | 0.9 | 3.5 | 0.00 | 0.00 | 0.00 | 35 | 1003.3 |
| 20260504192520 | 67 | 284 | 6.1 | 7.8 | 0.00 | 0.00 | 0.00 | 35 | 1003.5 |
| 20260504192018 | 65 | 284 | 0.0 | 5.2 | 0.00 | 0.00 | 0.00 | 38 | 1003.2 |
| 20260504191516 | 65 | 284 | 1.7 | 5.2 | 0.00 | 0.00 | 0.00 | 37 | 1003.3 |
| 20260504191011 | 63 | 284 | 0.0 | 0.9 | 0.00 | 0.00 | 0.00 | 40 | 1003.3 |
| 20260504190508 | 64 | 284 | 0.0 | 1.7 | 0.00 | 0.00 | 0.00 | 39 | 1003.4 |
| 20260504190004 | 63 | 284 | 0.0 | 0.9 | 0.00 | 0.00 | 0.00 | 40 | 1003.5 |
| 20260504185501 | 63 | 284 | 0.0 | 3.5 | 0.00 | 0.00 | 0.00 | 41 | 1003.5 |
| 20260504184958 | 64 | 284 | 0.0 | 3.5 | 0.00 | 0.00 | 0.00 | 40 | 1003.6 |
| 20260504184453 | 64 | 284 | 0.9 | 1.7 | 0.00 | 0.00 | 0.00 | 40 | 1003.3 |
| 20260504183949 | 64 | 284 | 0.0 | 2.6 | 0.00 | 0.00 | 0.00 | 40 | 1003.5 |
| 20260504183446 | 66 | 284 | 0.0 | 3.5 | 0.00 | 0.00 | 0.00 | 39 | 1003.6 |
| 20260504182944 | 66 | 284 | 0.0 | 2.6 | 0.00 | 0.00 | 0.00 | 35 | 1003.7 |
| 20260504182440 | 65 | 284 | 1.7 | 3.5 | 0.00 | 0.00 | 0.00 | 35 | 1003.7 |
| 20260504181938 | 62 | 284 | 0.0 | 1.7 | 0.00 | 0.00 | 0.00 | 38 | 1003.7 |
| 20260504181435 | 62 | 284 | 1.7 | 3.5 | 0.00 | 0.00 | 0.00 | 39 | 1003.6 |
| 20260504180934 | 62 | 284 | 0.0 | 0.9 | 0.00 | 0.00 | 0.00 | 40 | 1003.8 |
| 20260504180432 | 62 | 284 | 1.7 | 3.5 | 0.00 | 0.00 | 0.00 | 39 | 1003.7 |
| 20260504175930 | 62 | 284 | 3.5 | 7.8 | 0.00 | 0.00 | 0.00 | 39 | 1003.9 |
| 20260504175427 | 62 | 284 | 2.6 | 3.5 | 0.00 | 0.00 | 0.00 | 40 | 1003.7 |
| 20260504174924 | 62 | 284 | 0.0 | 0.9 | 0.00 | 0.00 | 0.00 | 40 | 1003.8 |
| 20260504174422 | 63 | 284 | 1.7 | 2.6 | 0.00 | 0.00 | 0.00 | 38 | 1003.7 |
| 20260504173919 | 64 | 284 | 1.7 | 1.7 | 0.00 | 0.00 | 0.00 | 37 | 1003.8 |
| 20260504173415 | 65 | 284 | 4.3 | 5.2 | 0.00 | 0.00 | 0.00 | 35 | 1003.7 |
| 20260504172913 | 62 | 284 | 0.0 | 3.5 | 0.00 | 0.00 | 0.00 | 36 | 1003.5 |
| 20260504172409 | 62 | 284 | 0.9 | 5.2 | 0.00 | 0.00 | 0.00 | 38 | 1003.6 |
| 20260504171905 | 62 | 284 | 1.7 | 2.6 | 0.00 | 0.00 | 0.00 | 38 | 1003.8 |
| 20260504171403 | 62 | 284 | 0.0 | 2.6 | 0.00 | 0.00 | 0.00 | 38 | 1003.8 |
| 20260504170859 | 62 | 284 | 0.9 | 1.7 | 0.00 | 0.00 | 0.00 | 36 | 1003.8 |
| 20260504170356 | 62 | 284 | 1.7 | 1.7 | 0.00 | 0.00 | 0.00 | 35 | 1003.6 |
| 20260504160315 | 65 | 284 | 1.7 | 6.1 | 0.00 | 0.00 | 0.00 | 34 | 1003.3 |
| 20260504150739 | 60 | 284 | 1.7 | 2.6 | 0.00 | 0.00 | 0.00 | 40 | 1004.0 |
| 20260504150236 | 59 | 284 | 0.9 | 6.1 | 0.00 | 0.00 | 0.00 | 42 | 1004.3 |
| 20260504141206 | 56 | 284 | 1.7 | 3.5 | 0.00 | 0.00 | 0.00 | 48 | 1005.1 |
| 20260504140703 | 56 | 284 | 1.7 | 5.2 | 0.00 | 0.00 | 0.00 | 48 | 1005.0 |
| 20260504140158 | 56 | 284 | 0.9 | 6.1 | 0.00 | 0.00 | 0.00 | 50 | 1004.9 |
| 20260504130626 | 51 | 284 | 0.0 | 0.0 | 0.00 | 0.00 | 0.00 | 58 | 1005.8 |
| 20260504130123 | 49 | 284 | 0.0 | 0.0 | 0.00 | 0.00 | 0.00 | 61 | 1005.8 |
| 20260504110514 | 45 | 284 | 0.0 | 0.0 | 0.00 | 0.00 | 0.00 | 66 | 1006.2 |
| 20260504100436 | 40 | 284 | 0.0 | 0.9 | 0.00 | 0.00 | 0.00 | 73 | 1005.8 |
| 20260504081829 | 37 | 284 | 0.0 | 0.0 | 0.00 | 0.00 | 0.00 | 73 | 1006.4 |
| 20260504081326 | 37 | 284 | 0.0 | 0.0 | 0.00 | 0.00 | 0.00 | 75 | 1006.4 |
| 20260504080822 | 35 | 284 | 0.0 | 2.6 | 0.00 | 0.00 | 0.00 | 76 | 1006.6 |
| 20260504080319 | 35 | 284 | 0.0 | 0.0 | 0.00 | 0.00 | 0.00 | 79 | 1006.4 |
| 20260504070241 | 33 | 284 | 0.0 | 0.0 | 0.00 | 0.00 | 0.00 | 83 | 1006.3 |
| 20260504060202 | 32 | 284 | 0.0 | 0.0 | 0.00 | 0.00 | 0.00 | 84 | 1005.9 |
| 20260504050629 | 31 | 284 | 0.0 | 0.0 | 0.00 | 0.00 | 0.00 | 86 | 1006.1 |
| 20260504050126 | 31 | 284 | 0.0 | 0.0 | 0.00 | 0.00 | 0.00 | 86 | 1006.2 |
| 20260504045624 | 31 | 284 | 0.0 | 0.0 | 0.00 | 0.00 | 0.00 | 85 | 1006.3 |
| 20260504045118 | 31 | 284 | 0.0 | 0.0 | 0.00 | 0.00 | 0.00 | 85 | 1006.2 |
| 20260504044616 | 31 | 284 | 0.0 | 0.0 | 0.00 | 0.00 | 0.00 | 85 | 1006.0 |
| 20260504044113 | 32 | 284 | 0.0 | 0.0 | 0.00 | 0.00 | 0.00 | 84 | 1006.1 |
| 20260504043610 | 32 | 284 | 0.0 | 0.0 | 0.00 | 0.00 | 0.00 | 84 | 1006.1 |
| 20260504043107 | 32 | 284 | 0.0 | 0.0 | 0.00 | 0.00 | 0.00 | 84 | 1006.1 |
| 20260504042604 | 32 | 284 | 0.0 | 0.0 | 0.00 | 0.00 | 0.00 | 83 | 1006.1 |
| 20260504042101 | 32 | 284 | 0.0 | 0.0 | 0.00 | 0.00 | 0.00 | 83 | 1005.9 |
| 20260504041557 | 33 | 284 | 0.0 | 0.0 | 0.00 | 0.00 | 0.00 | 82 | 1006.0 |
| 20260504041053 | 33 | 284 | 0.0 | 0.0 | 0.00 | 0.00 | 0.00 | 82 | 1006.0 |
| 20260504040551 | 33 | 284 | 0.0 | 0.0 | 0.00 | 0.00 | 0.00 | 82 | 1006.0 |
| 20260504040047 | 33 | 284 | 0.0 | 0.0 | 0.00 | 0.00 | 0.00 | 82 | 1006.1 |
| 20260504035544 | 33 | 284 | 0.0 | 0.0 | 0.00 | 0.00 | 0.00 | 82 | 1006.0 |
| 20260504035040 | 33 | 284 | 0.0 | 0.0 | 0.00 | 0.00 | 0.00 | 81 | 1006.0 |
| 20260504034539 | 34 | 284 | 0.0 | 0.0 | 0.00 | 0.00 | 0.00 | 80 | 1005.8 |
| 20260504034035 | 34 | 284 | 0.0 | 0.0 | 0.00 | 0.00 | 0.00 | 79 | 1005.5 |
| 20260504033533 | 34 | 284 | 0.0 | 0.0 | 0.00 | 0.00 | 0.00 | 79 | 1005.8 |
| 20260504033030 | 34 | 284 | 0.0 | 0.0 | 0.00 | 0.00 | 0.00 | 79 | 1005.7 |
| 20260504032527 | 34 | 284 | 0.0 | 0.0 | 0.00 | 0.00 | 0.00 | 79 | 1005.8 |
| 20260504032024 | 34 | 284 | 0.0 | 0.0 | 0.00 | 0.00 | 0.00 | 79 | 1005.8 |
| 20260504031521 | 34 | 284 | 0.0 | 0.0 | 0.00 | 0.00 | 0.00 | 78 | 1005.8 |
| 20260504031017 | 34 | 284 | 0.0 | 0.0 | 0.00 | 0.00 | 0.00 | 79 | 1005.9 |
| 20260504030515 | 34 | 284 | 0.0 | 0.0 | 0.00 | 0.00 | 0.00 | 79 | 1005.7 |
| 20260504030010 | 34 | 284 | 0.0 | 0.0 | 0.00 | 0.00 | 0.00 | 80 | 1005.6 |
| 20260504025508 | 34 | 284 | 0.0 | 0.0 | 0.00 | 0.00 | 0.00 | 81 | 1005.7 |
| 20260504025005 | 34 | 284 | 0.0 | 0.0 | 0.00 | 0.00 | 0.00 | 80 | 1005.8 |
| 20260504024502 | 33 | 284 | 0.0 | 0.0 | 0.00 | 0.00 | 0.00 | 81 | 1005.7 |
| 20260504023959 | 33 | 284 | 0.0 | 0.0 | 0.00 | 0.00 | 0.00 | 81 | 1005.8 |
| 20260504023455 | 33 | 284 | 0.0 | 0.0 | 0.00 | 0.00 | 0.00 | 81 | 1005.9 |
| 20260504022950 | 33 | 284 | 0.0 | 0.0 | 0.00 | 0.00 | 0.00 | 81 | 1005.8 |
| 20260504022447 | 33 | 284 | 0.0 | 0.0 | 0.00 | 0.00 | 0.00 | 82 | 1005.9 |
| 20260504021944 | 33 | 284 | 0.0 | 0.0 | 0.00 | 0.00 | 0.00 | 82 | 1005.9 |
| 20260504021441 | 33 | 284 | 0.0 | 0.0 | 0.00 | 0.00 | 0.00 | 82 | 1005.8 |
| 20260504020938 | 34 | 284 | 0.0 | 0.0 | 0.00 | 0.00 | 0.00 | 82 | 1006.0 |
| 20260504020434 | 34 | 284 | 0.0 | 0.0 | 0.00 | 0.00 | 0.00 | 81 | 1005.7 |
| 20260504015931 | 34 | 284 | 0.0 | 0.0 | 0.00 | 0.00 | 0.00 | 80 | 1005.9 |
| 20260504015427 | 34 | 284 | 0.0 | 0.0 | 0.00 | 0.00 | 0.00 | 80 | 1005.8 |
| 20260504014923 | 34 | 284 | 0.0 | 0.0 | 0.00 | 0.00 | 0.00 | 79 | 1005.7 |
| 20260504014420 | 34 | 284 | 0.0 | 0.0 | 0.00 | 0.00 | 0.00 | 79 | 1005.7 |
| 20260504013916 | 35 | 284 | 0.0 | 0.0 | 0.00 | 0.00 | 0.00 | 79 | 1005.8 |
| 20260504013415 | 35 | 284 | 0.0 | 0.0 | 0.00 | 0.00 | 0.00 | 78 | 1005.7 |
| 20260504012911 | 35 | 284 | 0.0 | 0.0 | 0.00 | 0.00 | 0.00 | 77 | 1005.7 |
| 20260504012409 | 35 | 284 | 0.0 | 0.0 | 0.00 | 0.00 | 0.00 | 77 | 1005.7 |
| 20260504011906 | 36 | 284 | 0.0 | 0.0 | 0.00 | 0.00 | 0.00 | 77 | 1005.6 |
| 20260504011403 | 36 | 284 | 0.0 | 0.0 | 0.00 | 0.00 | 0.00 | 76 | 1005.5 |
| 20260504010859 | 36 | 284 | 0.0 | 0.0 | 0.00 | 0.00 | 0.00 | 76 | 1005.6 |
| 20260504010354 | 36 | 284 | 0.0 | 0.0 | 0.00 | 0.00 | 0.00 | 75 | 1005.7 |
| 20260504005845 | 37 | 284 | 0.0 | 0.0 | 0.00 | 0.00 | 0.00 | 75 | 1005.3 |
| 20260504005342 | 37 | 284 | 0.0 | 0.0 | 0.00 | 0.00 | 0.00 | 74 | 1005.3 |
| 20260504004840 | 37 | 284 | 0.0 | 0.0 | 0.00 | 0.00 | 0.00 | 74 | 1005.4 |
| 20260504004337 | 37 | 284 | 0.0 | 0.0 | 0.00 | 0.00 | 0.00 | 73 | 1005.2 |
| 20260504003833 | 38 | 284 | 0.0 | 0.0 | 0.00 | 0.00 | 0.00 | 72 | 1005.1 |
| 20260504003330 | 38 | 284 | 0.0 | 0.0 | 0.00 | 0.00 | 0.00 | 71 | 1005.2 |
| 20260504002827 | 39 | 284 | 0.0 | 0.0 | 0.00 | 0.00 | 0.00 | 70 | 1005.1 |
| 20260504002324 | 39 | 284 | 0.0 | 0.0 | 0.00 | 0.00 | 0.00 | 68 | 1005.1 |
| 20260504001822 | 40 | 284 | 0.0 | 0.0 | 0.00 | 0.00 | 0.00 | 68 | 1005.1 |
| 20260504001319 | 40 | 284 | 0.0 | 0.0 | 0.00 | 0.00 | 0.00 | 67 | 1005.0 |
| 20260504000815 | 41 | 284 | 0.0 | 0.0 | 0.00 | 0.00 | 0.00 | 64 | 1004.7 |
| 20260504000312 | 42 | 284 | 0.0 | 0.0 | 0.00 | 0.00 | 0.00 | 62 | 1004.7 |
| 20260503235810 | 44 | 284 | 0.0 | 0.0 | 0.00 | 0.00 | 0.00 | 58 | 1004.6 |
| 20260503235308 | 44 | 284 | 0.0 | 0.0 | 0.00 | 0.00 | 0.00 | 54 | 1004.7 |
| 20260503234805 | 44 | 284 | 0.0 | 0.9 | 0.00 | 0.00 | 0.00 | 54 | 1004.5 |
| 20260503234303 | 45 | 284 | 0.0 | 0.0 | 0.00 | 0.00 | 0.00 | 56 | 1004.5 |
| 20260503233800 | 45 | 284 | 0.0 | 0.0 | 0.00 | 0.00 | 0.00 | 50 | 1004.6 |
| 20260503233255 | 46 | 284 | 0.0 | 0.9 | 0.00 | 0.00 | 0.00 | 48 | 1004.5 |
| 20260503232753 | 46 | 284 | 0.0 | 3.5 | 0.00 | 0.00 | 0.00 | 46 | 1004.0 |
| 20260503232250 | 46 | 284 | 0.9 | 2.6 | 0.00 | 0.00 | 0.00 | 45 | 1004.1 |